When you browse on this site, cookies collect data to enhance your experience and personalize the content and advertising you see.
Visit our Privacy Policy to learn more. By continuing to use the site, you agree to this use of cookies and data.
  • In Latvia
  • List of Countries
  • For 7 days
  • Water Temperature
  • Weather Map
  • Weather Widgets
  • user-avatar
    Login

    Hourly Weather Bangor

    Today, 23 September, Monday

    Time Temperature Precipitation Wind Pressure Humidity
    00:00 +12°C° 0 mm 3 mps 737 mmHg 95%
    01:00 +12°C° 0.1 mm 3 mps 738 mmHg 95%
    02:00 +12°C° 0.1 mm 3 mps 738 mmHg 94%
    03:00 +12°C° 0.1 mm 4 mps 738 mmHg 94%
    04:00 +11°C° 0 mm 3 mps 738 mmHg 94%
    05:00 +11°C° 0 mm 3 mps 739 mmHg 94%
    06:00 +10°C° 0 mm 3 mps 739 mmHg 94%
    07:00 +11°C° 0 mm 3 mps 739 mmHg 91%
    08:00 +12°C° 0 mm 4 mps 739 mmHg 89%
    09:00 +14°C° 0 mm 5 mps 740 mmHg 86%
    10:00 +15°C° 0 mm 6 mps 739 mmHg 82%
    11:00 +16°C° 0 mm 6 mps 739 mmHg 77%
    12:00 +17°C° 0 mm 7 mps 739 mmHg 73%
    13:00 +15°C° 1.2 mm 7 mps 738 mmHg 80%
    14:00 +14°C° 1.2 mm 7 mps 738 mmHg 87%
    15:00 +12°C° 1.2 mm 8 mps 737 mmHg 94%
    16:00 +14°C° 0.7 mm 7 mps 737 mmHg 94%
    17:00 +14°C° 0.7 mm 6 mps 737 mmHg 95%
    18:00 +14°C° 0.7 mm 6 mps 737 mmHg 96%
    19:00 +14°C° 0.4 mm 5 mps 737 mmHg 96%
    20:00 +15°C° 0.4 mm 5 mps 737 mmHg 97%
    21:00 +15°C° 0.4 mm 4 mps 737 mmHg 97%
    22:00 +15°C° 0.1 mm 4 mps 737 mmHg 97%
    23:00 +15°C° 0.1 mm 4 mps 736 mmHg 97%

    Tomorrow, 24 September, Tuesday

    Time Temperature Precipitation Wind Pressure Humidity
    00:00 +15°C° 0.1 mm 4 mps 736 mmHg 96%
    01:00 +15°C° 1.5 mm 4 mps 735 mmHg 97%
    02:00 +15°C° 1.5 mm 4 mps 735 mmHg 97%
    03:00 +15°C° 1.5 mm 4 mps 734 mmHg 98%
    04:00 +15°C° 6.5 mm 4 mps 734 mmHg 97%
    05:00 +15°C° 6.5 mm 4 mps 733 mmHg 96%
    06:00 +15°C° 6.5 mm 4 mps 732 mmHg 96%
    07:00 +15°C° 1.1 mm 4 mps 732 mmHg 96%
    08:00 +14°C° 1.1 mm 4 mps 732 mmHg 95%
    09:00 +14°C° 1.1 mm 4 mps 732 mmHg 95%
    10:00 +15°C° 0.2 mm 5 mps 732 mmHg 90%
    11:00 +16°C° 0.2 mm 6 mps 733 mmHg 84%
    12:00 +16°C° 0.2 mm 7 mps 733 mmHg 79%
    13:00 +16°C° 0 mm 7 mps 733 mmHg 78%
    14:00 +16°C° 0 mm 7 mps 733 mmHg 77%
    15:00 +16°C° 0 mm 7 mps 733 mmHg 76%
    16:00 +15°C° 0.1 mm 7 mps 733 mmHg 80%
    17:00 +14°C° 0.1 mm 6 mps 733 mmHg 84%
    18:00 +13°C° 0.1 mm 6 mps 733 mmHg 88%
    19:00 +13°C° 0.6 mm 6 mps 733 mmHg 90%
    20:00 +13°C° 0.6 mm 6 mps 733 mmHg 92%
    21:00 +12°C° 0.6 mm 7 mps 732 mmHg 94%
    22:00 +12°C° 0.9 mm 7 mps 732 mmHg 93%
    23:00 +12°C° 0.9 mm 7 mps 732 mmHg 92%

    Day after tomorrow, 25 September, Wednesday

    Time Temperature Precipitation Wind Pressure Humidity
    00:00 +13°C° 0.9 mm 6 mps 731 mmHg 92%
    01:00 +13°C° 0.6 mm 6 mps 731 mmHg 92%
    02:00 +13°C° 0.6 mm 6 mps 731 mmHg 93%
    03:00 +13°C° 0.6 mm 6 mps 731 mmHg 93%
    04:00 +12°C° 0.7 mm 7 mps 731 mmHg 93%
    05:00 +12°C° 0.7 mm 8 mps 731 mmHg 93%
    06:00 +13°C° 0.7 mm 8 mps 731 mmHg 93%
    07:00 +13°C° 0.4 mm 8 mps 732 mmHg 92%
    08:00 +13°C° 0.4 mm 8 mps 732 mmHg 91%
    09:00 +14°C° 0.4 mm 7 mps 733 mmHg 91%
    10:00 +14°C° 0.1 mm 7 mps 734 mmHg 88%
    11:00 +15°C° 0.1 mm 7 mps 734 mmHg 86%
    12:00 +15°C° 0.1 mm 7 mps 735 mmHg 84%
    13:00 +15°C° 0 mm 7 mps 735 mmHg 82%
    14:00 +16°C° 0 mm 6 mps 735 mmHg 81%
    15:00 +16°C° 0 mm 6 mps 735 mmHg 80%
    16:00 +15°C° 0.1 mm 6 mps 735 mmHg 84%
    17:00 +15°C° 0.1 mm 5 mps 735 mmHg 89%
    18:00 +14°C° 0.1 mm 4 mps 735 mmHg 94%
    19:00 +14°C° 0.3 mm 4 mps 735 mmHg 94%
    20:00 +15°C° 0.3 mm 5 mps 735 mmHg 95%
    21:00 +15°C° 0.3 mm 5 mps 735 mmHg 96%
    22:00 +15°C° 0.4 mm 6 mps 735 mmHg 96%
    23:00 +15°C° 0.4 mm 7 mps 735 mmHg 95%

    26 September, Thursday

    Time Temperature Precipitation Wind Pressure Humidity
    00:00 +16°C° 0.4 mm 8 mps 734 mmHg 95%
    01:00 +15°C° 0.3 mm 8 mps 734 mmHg 95%
    02:00 +15°C° 0.3 mm 8 mps 734 mmHg 94%
    03:00 +15°C° 0.3 mm 8 mps 734 mmHg 93%
    04:00 +15°C° 0.3 mm 8 mps 734 mmHg 93%
    05:00 +15°C° 0.3 mm 8 mps 734 mmHg 92%
    06:00 +13°C° 0.3 mm 8 mps 734 mmHg 92%
    07:00 +14°C° 0.1 mm 7 mps 735 mmHg 88%
    08:00 +14°C° 0.1 mm 7 mps 735 mmHg 85%
    09:00 +14°C° 0.1 mm 6 mps 736 mmHg 81%
    10:00 +14°C° 0.1 mm 7 mps 736 mmHg 78%
    11:00 +15°C° 0.1 mm 7 mps 736 mmHg 76%
    12:00 +15°C° 0.1 mm 8 mps 736 mmHg 73%
    13:00 +15°C° 0.2 mm 8 mps 736 mmHg 74%
    14:00 +15°C° 0.2 mm 9 mps 736 mmHg 76%
    15:00 +15°C° 0.2 mm 9 mps 736 mmHg 77%
    16:00 +13°C° 0.1 mm 8 mps 736 mmHg 79%
    17:00 +12°C° 0.1 mm 8 mps 737 mmHg 80%
    18:00 +12°C° 0.1 mm 7 mps 737 mmHg 81%
    19:00 +11°C° 0.1 mm 7 mps 737 mmHg 83%
    20:00 +11°C° 0.1 mm 7 mps 737 mmHg 84%
    21:00 +11°C° 0.1 mm 7 mps 737 mmHg 86%
    22:00 +11°C° 0.2 mm 7 mps 737 mmHg 86%
    23:00 +11°C° 0.2 mm 7 mps 737 mmHg 87%

    27 September, Friday

    Time Temperature Precipitation Wind Pressure Humidity
    00:00 +11°C° 0.2 mm 7 mps 737 mmHg 88%
    01:00 +11°C° 0.2 mm 6 mps 737 mmHg 89%
    02:00 +10°C° 0.2 mm 6 mps 737 mmHg 89%
    03:00 +10°C° 0.2 mm 6 mps 737 mmHg 89%
    04:00 +10°C° 0.3 mm 6 mps 737 mmHg 89%
    05:00 +10°C° 0.3 mm 6 mps 737 mmHg 89%
    06:00 +10°C° 0.3 mm 6 mps 737 mmHg 89%
    07:00 +11°C° 0.4 mm 7 mps 737 mmHg 87%
    08:00 +11°C° 0.4 mm 7 mps 737 mmHg 85%
    09:00 +12°C° 0.4 mm 8 mps 737 mmHg 83%
    10:00 +12°C° 0.3 mm 8 mps 737 mmHg 82%
    11:00 +13°C° 0.3 mm 9 mps 737 mmHg 81%
    12:00 +13°C° 0.3 mm 9 mps 737 mmHg 79%
    13:00 +13°C° 0.3 mm 9 mps 737 mmHg 79%
    14:00 +13°C° 0.3 mm 9 mps 737 mmHg 79%
    15:00 +13°C° 0.3 mm 9 mps 737 mmHg 80%
    16:00 +12°C° 0.1 mm 8 mps 737 mmHg 81%
    17:00 +11°C° 0.1 mm 8 mps 737 mmHg 83%
    18:00 +11°C° 0.1 mm 7 mps 737 mmHg 85%
    19:00 +11°C° 0.3 mm 8 mps 737 mmHg 86%
    20:00 +11°C° 0.3 mm 8 mps 737 mmHg 86%
    21:00 +11°C° 0.3 mm 8 mps 738 mmHg 87%
    22:00 +11°C° 0.2 mm 8 mps 737 mmHg 87%
    23:00 +11°C° 0.2 mm 8 mps 737 mmHg 87%

    28 September, Saturday

    Time Temperature Precipitation Wind Pressure Humidity
    00:00 +10°C° 0.2 mm 8 mps 737 mmHg 87%
    01:00 +11°C° 0.2 mm 8 mps 737 mmHg 86%
    02:00 +11°C° 0.2 mm 9 mps 737 mmHg 86%
    03:00 +11°C° 0.2 mm 9 mps 737 mmHg 86%
    04:00 +10°C° 0.1 mm 8 mps 738 mmHg 86%
    05:00 +10°C° 0.1 mm 7 mps 738 mmHg 87%
    06:00 +10°C° 0.1 mm 7 mps 738 mmHg 87%
    07:00 +10°C° 0.1 mm 7 mps 739 mmHg 85%
    08:00 +11°C° 0.1 mm 7 mps 739 mmHg 83%
    09:00 +12°C° 0.1 mm 7 mps 740 mmHg 81%
    10:00 +12°C° 0.2 mm 7 mps 740 mmHg 79%
    11:00 +14°C° 0.2 mm 7 mps 740 mmHg 78%
    12:00 +14°C° 0.2 mm 7 mps 741 mmHg 76%
    13:00 +14°C° 0.1 mm 7 mps 741 mmHg 76%
    14:00 +13°C° 0.1 mm 8 mps 740 mmHg 77%
    15:00 +13°C° 0.1 mm 8 mps 740 mmHg 77%
    16:00 +12°C° 0.1 mm 7 mps 740 mmHg 80%
    17:00 +13°C° 0.1 mm 6 mps 740 mmHg 84%
    18:00 +12°C° 0.1 mm 5 mps 740 mmHg 87%
    19:00 +12°C° 0 mm 5 mps 740 mmHg 87%
    20:00 +12°C° 0 mm 5 mps 740 mmHg 86%
    21:00 +12°C° 0 mm 5 mps 740 mmHg 85%
    22:00 +10°C° 0.4 mm 5 mps 739 mmHg 88%
    23:00 +11°C° 0.4 mm 4 mps 739 mmHg 91%
    Show more